GW1618 Weather Reports


time (UTC)temp
F
wind
direction
speed
knots
gust
knots
rain 1hr
in
rain 24hr
in
rain mn
in
humidity
%
barometer
mb
20260905234954 68 359 7.0 11.3 0.00 0.04 0.01 55 1015.3
20260905234209 68 4 7.0 9.6 0.00 0.04 0.01 57 1015.3
20260905233953 68 351 7.0 9.6 0.00 0.04 0.01 55 1015.3
20260905233202 69 9 5.2 8.7 0.00 0.04 0.01 53 1015.3
20260905232702 69 350 4.3 6.1 0.00 0.04 0.01 52 1015.3
20260905232200 69 21 4.3 6.1 0.00 0.04 0.01 50 1015.3
20260905231701 69 351 3.5 6.1 0.00 0.04 0.01 51 1015.3
20260905231203 69 30 3.5 5.2 0.00 0.04 0.01 51 1015.3
20260905230703 69 327 2.6 4.3 0.00 0.04 0.01 50 1015.4
20260905230503 69 334 1.7 3.5 0.00 0.04 0.01 52 1015.4
20260905225700 68 325 2.6 5.2 0.00 0.04 0.01 52 1015.4
20260905225457 68 332 3.5 6.1 0.00 0.04 0.01 54 1015.4
20260905224656 67 9 4.3 7.8 0.00 0.04 0.01 57 1015.4
20260905224147 67 30 5.2 8.7 0.00 0.04 0.01 56 1015.4
20260905223637 67 347 5.2 8.7 0.00 0.04 0.01 57 1015.5
20260905223139 67 333 3.5 7.8 0.00 0.04 0.01 59 1015.5
20260905222638 67 337 2.6 4.3 0.00 0.04 0.01 56 1015.7
20260905222140 67 9 2.6 4.3 0.00 0.04 0.01 56 1015.7
20260905221640 67 328 2.6 3.5 0.00 0.04 0.01 55 1015.7
20260905221446 67 319 2.6 4.3 0.00 0.04 0.01 56 1016.0
20260905220634 67 328 3.5 4.3 0.00 0.04 0.01 55 1016.0
20260905220134 67 341 3.5 4.3 0.00 0.04 0.01 55 1016.0
20260905215635 67 15 3.5 5.2 0.00 0.04 0.01 56 1016.0
20260905215132 67 35 3.5 5.2 0.00 0.04 0.01 60 1016.0
20260905214634 67 13 4.3 5.2 0.00 0.04 0.01 58 1016.0
20260905214120 67 15 4.3 5.2 0.00 0.04 0.01 56 1016.0
20260905213614 67 29 3.5 5.2 0.00 0.04 0.01 55 1016.0
20260905213112 67 9 3.5 4.3 0.00 0.04 0.01 55 1016.0
20260905212613 66 37 3.5 4.3 0.00 0.04 0.01 57 1016.1
20260905212114 66 18 3.5 4.3 0.00 0.04 0.01 57 1016.1
20260905211614 66 355 2.6 4.3 0.00 0.04 0.01 60 1016.1
20260905211423 66 348 2.6 5.2 0.00 0.04 0.01 60 1016.3
20260905210610 66 359 3.5 5.2 0.00 0.04 0.01 62 1016.3
20260905210420 66 9 1.7 5.2 0.00 0.04 0.01 61 1016.3
20260905205610 67 311 1.7 3.5 0.00 0.04 0.01 57 1016.4
20260905205105 66 250 2.6 4.3 0.00 0.04 0.01 56 1016.4
20260905204553 66 177 2.6 4.3 0.00 0.04 0.01 58 1016.4
20260905204041 66 232 1.7 3.5 0.00 0.04 0.01 57 1016.5
20260905203531 66 215 2.6 5.2 0.00 0.04 0.01 57 1016.5
20260905203030 65 213 2.6 5.2 0.00 0.04 0.01 59 1016.5
20260905202532 65 205 3.5 4.3 0.00 0.04 0.01 59 1016.6
20260905202031 65 215 3.5 6.1 0.00 0.04 0.01 59 1016.6
20260905201830 65 216 3.5 6.1 0.00 0.04 0.01 59 1016.6
20260905201031 65 249 3.5 5.2 0.00 0.04 0.01 59 1016.7
20260905200819 65 233 3.5 5.2 0.00 0.04 0.01 59 1016.7
20260905200331 65 237 3.5 5.2 0.00 0.04 0.01 59 1016.7
20260905195534 65 273 3.5 5.2 0.00 0.04 0.01 59 1016.9
20260905195026 65 273 3.5 5.2 0.00 0.04 0.01 60 1016.9
20260905194510 64 204 2.6 5.2 0.00 0.04 0.01 60 1016.9
20260905194012 64 250 2.6 4.3 0.00 0.04 0.01 60 1017.0
20260905193513 64 261 2.6 4.3 0.00 0.04 0.01 59 1017.0
20260905193008 63 254 2.6 4.3 0.00 0.04 0.01 62 1017.0
20260905192805 64 237 1.7 4.3 0.00 0.04 0.01 62 1017.1
20260905192008 63 219 1.7 3.5 0.00 0.04 0.01 62 1017.1
20260905191508 63 213 1.7 3.5 0.00 0.04 0.01 63 1017.1
20260905191009 63 242 0.9 3.5 0.00 0.04 0.01 66 1017.3
20260905190514 62 219 1.7 3.5 0.00 0.04 0.01 65 1017.3
20260905190010 62 176 1.7 3.5 0.00 0.04 0.01 67 1017.3
20260905185453 62 186 0.9 2.6 0.00 0.04 0.01 68 1017.4
20260905184938 61 139 0.9 2.6 0.00 0.04 0.01 71 1017.4
20260905184434 61 209 0.9 3.5 0.00 0.04 0.01 72 1017.4
20260905183936 60 283 1.7 4.3 0.00 0.04 0.01 73 1017.5
20260905183429 60 273 1.7 4.3 0.00 0.04 0.01 74 1017.5
20260905182930 59 214 1.7 3.5 0.00 0.04 0.01 77 1017.5
20260905182430 59 223 1.7 2.6 0.00 0.04 0.01 79 1017.6
20260905181934 58 261 1.7 3.5 0.00 0.04 0.01 80 1017.6
20260905181430 58 232 1.7 3.5 0.00 0.04 0.01 80 1017.6
20260905180933 58 269 1.7 3.5 0.00 0.04 0.01 81 1017.6
20260905180430 57 222 1.7 3.5 0.00 0.04 0.01 83 1017.6
20260905175920 57 211 1.7 3.5 0.00 0.04 0.01 84 1017.6
20260905175420 57 202 1.7 3.5 0.00 0.04 0.01 84 1017.6
20260905174928 57 194 1.7 3.5 0.00 0.04 0.01 84 1017.6
20260905174711 56 158 0.9 2.6 0.00 0.04 0.01 85 1017.6
20260905173919 56 205 1.7 2.6 0.00 0.04 0.01 85 1017.5
20260905173418 56 166 1.7 3.5 0.00 0.04 0.01 85 1017.5
20260905172916 56 225 1.7 3.5 0.00 0.04 0.01 85 1017.5
20260905172719 56 215 1.7 4.3 0.00 0.04 0.01 85 1017.5
20260905171914 56 240 2.6 4.3 0.00 0.04 0.01 86 1017.5
20260905171412 56 218 1.7 3.5 0.00 0.04 0.01 87 1017.5
20260905170913 56 205 1.7 3.5 0.00 0.04 0.01 87 1017.6
20260905170718 56 226 0.9 2.6 0.00 0.04 0.01 88 1017.6
20260905165900 55 223 0.9 1.7 0.00 0.04 0.01 88 1017.6
20260905165355 55 316 0.9 1.7 0.00 0.04 0.01 88 1017.5
20260905164850 55 323 0.0 0.9 0.00 0.04 0.01 89 1017.5
20260905164342 54 335 0.9 2.6 0.00 0.04 0.01 89 1017.5
20260905163835 54 335 0.9 2.6 0.00 0.04 0.01 89 1017.2
20260905163402 54 9 0.9 2.6 0.00 0.04 0.01 89 1017.2
20260905162331 54 343 2.6 4.3 0.00 0.04 0.01 89 1017.1
20260905161834 54 342 2.6 4.3 0.00 0.04 0.01 89 1017.1
20260905161631 54 344 1.7 3.5 0.00 0.04 0.01 89 1017.1
20260905160838 53 359 1.7 2.6 0.00 0.04 0.01 89 1017.1
20260905160329 53 28 1.7 2.6 0.00 0.04 0.01 89 1017.1
20260905155833 53 18 1.7 3.5 0.00 0.04 0.01 89 1017.1
20260905155330 53 342 0.9 3.5 0.00 0.04 0.01 89 1017.1
20260905154822 54 344 0.9 1.7 0.00 0.04 0.01 90 1017.1
20260905154616 54 13 0.9 1.7 0.00 0.04 0.01 90 1017.1
20260905153807 54 67 0.0 0.9 0.00 0.04 0.01 91 1017.1
20260905153601 53 92 0.0 0.9 0.00 0.04 0.01 91 1017.1
20260905152752 53 92 0.0 1.7 0.00 0.04 0.01 91 1017.1
20260905152250 53 92 0.0 1.7 0.00 0.04 0.01 92 1017.0
20260905151741 53 132 0.0 1.7 0.00 0.04 0.01 92 1017.0
20260905151305 52 209 0.9 2.6 0.00 0.04 0.01 92 1017.0
20260905150232 51 240 0.9 2.6 0.00 0.04 0.01 92 1017.0
20260905145729 51 221 0.9 2.6 0.00 0.04 0.01 92 1017.0
20260905145229 51 215 0.9 2.6 0.00 0.04 0.01 92 1017.0
20260905144730 51 215 0.9 2.6 0.00 0.04 0.01 92 1017.0
20260905144208 51 184 0.9 2.6 0.00 0.04 0.01 92 1017.0
20260905143709 51 217 1.7 3.5 0.00 0.04 0.01 92 1017.0
20260905143205 51 220 1.7 3.5 0.00 0.04 0.01 92 1017.0
20260905142701 51 174 1.7 4.3 0.00 0.04 0.01 92 1017.0
20260905142201 51 227 1.7 4.3 0.00 0.04 0.01 92 1017.0
20260905141702 51 205 1.7 3.5 0.00 0.04 0.01 92 1017.0
20260905141201 51 208 1.7 3.5 0.00 0.04 0.01 92 1017.0
20260905141003 51 221 0.9 2.6 0.00 0.04 0.01 92 1016.8
20260905140205 51 194 0.9 1.7 0.00 0.04 0.01 92 1016.8
20260905135708 51 207 0.9 2.6 0.00 0.04 0.01 92 1016.8
20260905135208 51 208 0.9 3.5 0.00 0.04 0.01 92 1016.6
20260905134941 51 226 0.9 3.5 0.00 0.04 0.01 92 1016.6
20260905134203 51 217 0.9 2.6 0.00 0.04 0.01 92 1016.6
20260905133705 51 210 0.9 1.7 0.00 0.04 0.01 92 1016.5
20260905133200 51 209 0.9 2.6 0.00 0.04 0.01 92 1016.5
20260905132701 51 221 0.9 2.6 0.00 0.04 0.01 92 1016.5
20260905132201 51 179 1.7 3.5 0.00 0.04 0.01 92 1016.5
20260905131704 51 169 1.7 3.5 0.00 0.04 0.01 92 1016.5
20260905131202 51 177 0.9 2.6 0.00 0.04 0.01 92 1016.5
20260905130702 51 198 0.9 2.6 0.00 0.04 0.01 92 1016.4
20260905130203 51 204 0.9 2.6 0.00 0.04 0.01 92 1016.4
20260905125700 51 196 0.0 1.7 0.00 0.04 0.01 92 1016.4
20260905125158 51 196 0.9 3.5 0.00 0.04 0.01 92 1016.5
20260905124656 51 196 1.7 3.5 0.00 0.04 0.01 92 1016.5
20260905124440 51 209 1.7 2.6 0.00 0.04 0.01 92 1016.5
20260905123646 51 157 0.9 2.6 0.00 0.04 0.01 92 1016.5
20260905123418 51 174 0.9 2.6 0.00 0.04 0.01 92 1016.5
20260905122642 51 175 0.9 2.6 0.00 0.04 0.01 92 1016.4
20260905122143 51 166 0.9 2.6 0.00 0.04 0.01 92 1016.4
20260905121636 51 155 1.7 2.6 0.00 0.04 0.01 92 1016.4
20260905121136 51 155 1.7 2.6 0.00 0.04 0.01 92 1016.3
20260905120636 51 165 0.9 2.6 0.00 0.04 0.01 92 1016.3
20260905120137 51 133 0.9 1.7 0.00 0.04 0.01 92 1016.3
20260905115632 51 89 0.0 1.7 0.00 0.04 0.01 92 1016.3
20260905115130 52 178 0.9 1.7 0.00 0.04 0.01 92 1016.3
20260905114629 52 178 0.9 2.6 0.00 0.04 0.01 92 1016.3
20260905114131 52 226 0.9 2.6 0.00 0.04 0.01 92 1016.3
20260905113632 52 204 0.9 2.6 0.00 0.04 0.01 92 1016.3
20260905113130 52 184 0.9 2.6 0.00 0.04 0.01 92 1016.3
20260905112632 52 156 0.9 2.6 0.00 0.04 0.01 92 1016.2
20260905112132 52 157 1.7 3.5 0.00 0.04 0.01 92 1016.2
20260905111623 52 178 1.7 2.6 0.01 0.04 0.01 92 1016.2
20260905111117 52 198 1.7 2.6 0.01 0.04 0.01 93 1016.2
20260905110605 52 169 1.7 2.6 0.01 0.04 0.01 92 1016.2
20260905110104 52 167 1.7 2.6 0.01 0.04 0.01 92 1016.2
20260905105602 52 154 0.9 1.7 0.01 0.04 0.01 92 1016.0
20260905105105 52 157 0.9 1.7 0.01 0.04 0.01 93 1016.0
20260905104604 52 170 0.9 1.7 0.01 0.04 0.01 93 1016.0
20260905104103 52 242 0.9 1.7 0.01 0.04 0.01 93 1016.0
20260905103553 52 242 0.9 1.7 0.01 0.04 0.01 93 1016.0
20260905103040 52 256 0.9 0.9 0.01 0.04 0.01 93 1016.0
20260905102539 52 256 0.9 2.6 0.01 0.04 0.01 93 1016.0
20260905102315 52 256 1.7 2.6 0.01 0.04 0.00 93 1016.0
20260905101535 52 246 1.7 2.6 0.00 0.03 0.00 93 1016.0
20260905101031 52 184 1.7 3.5 0.00 0.03 0.00 93 1015.9
20260905100531 52 210 2.6 3.5 0.00 0.03 0.00 93 1015.9
20260905100027 52 223 1.7 3.5 0.00 0.03 0.00 93 1015.9
20260905095824 52 219 0.9 2.6 0.00 0.03 0.00 93 1016.0
20260905095022 53 250 0.9 2.6 0.00 0.03 0.00 93 1016.0
20260905094521 53 238 0.9 3.5 0.00 0.03 0.00 93 1016.0
20260905094024 53 231 0.9 3.5 0.00 0.03 0.00 93 1016.0
20260905093520 53 241 0.9 2.6 0.00 0.03 0.00 93 1016.0
20260905093024 53 217 1.7 4.3 0.00 0.03 0.00 93 1016.0
20260905092514 53 224 2.6 4.3 0.00 0.03 0.00 93 1016.0
20260905092319 53 199 1.7 4.3 0.00 0.03 0.00 93 1016.0
20260905091503 53 232 1.7 2.6 0.00 0.03 0.00 93 1016.0
20260905091002 53 226 0.9 3.5 0.00 0.03 0.00 93 1015.9
20260905090501 53 224 0.9 3.5 0.00 0.03 0.00 93 1015.9
20260905090001 53 250 0.9 1.7 0.00 0.03 0.00 92 1015.9
20260905085501 53 250 0.9 1.7 0.00 0.03 0.00 92 1015.7
20260905085002 53 213 0.9 1.7 0.00 0.03 0.00 92 1015.7
20260905084804 53 257 0.0 1.7 0.00 0.03 0.00 92 1015.7
20260905084249 53 257 0.9 1.7 0.00 0.03 0.00 92 1015.7
20260905083756 53 257 0.9 1.7 0.00 0.03 0.00 92 1015.7
20260905083030 53 257 0.9 2.6 0.00 0.03 0.00 92 1015.7
20260905082003 54 228 1.7 2.6 0.00 0.03 0.00 92 1015.6
20260905081455 54 239 1.7 2.6 0.00 0.03 0.00 92 1015.6
20260905080949 54 223 1.7 2.6 0.00 0.03 0.00 92 1015.5
20260905080453 54 207 1.7 2.6 0.00 0.03 0.00 92 1015.5
20260905075949 54 253 1.7 2.6 0.00 0.03 0.00 92 1015.5
20260905075451 54 269 1.7 2.6 0.00 0.03 0.00 92 1015.5
20260905074942 55 255 0.9 1.7 0.00 0.03 0.00 92 1015.5
20260905074745 55 252 0.9 1.7 0.00 0.03 0.00 92 1015.5
20260905073943 55 259 0.9 2.6 0.00 0.03 0.00 92 1015.5
20260905073440 55 259 0.9 2.6 0.00 0.03 0.00 92 1015.5
20260905073010 55 254 0.0 1.7 0.00 0.03 0.00 92 1015.5
20260905071938 55 252 0.9 1.7 0.00 0.03 0.00 92 1015.5
20260905071437 55 264 0.0 1.7 0.00 0.03 0.00 91 1015.5
20260905070929 55 231 0.9 2.6 0.00 0.03 0.00 91 1015.5
20260905070430 55 231 1.7 2.6 0.00 0.03 0.00 92 1015.5
20260905065929 55 194 1.7 3.5 0.00 0.03 0.03 92 1015.5
20260905065436 55 204 1.7 3.5 0.00 0.03 0.03 91 1015.2
20260905064932 55 233 0.9 3.5 0.00 0.03 0.03 92 1015.2
20260905064714 55 197 0.9 2.6 0.00 0.03 0.03 92 1015.2
20260905063915 55 209 0.9 2.6 0.00 0.03 0.03 92 1015.0
20260905063413 55 236 0.0 1.7 0.00 0.03 0.03 92 1015.0
20260905063203 55 256 0.0 1.7 0.00 0.03 0.03 91 1015.0
20260905062412 56 258 0.9 2.6 0.00 0.03 0.03 91 1014.9
20260905061909 56 256 1.7 3.5 0.00 0.03 0.03 91 1014.9
20260905061407 56 227 2.6 5.2 0.00 0.03 0.03 91 1014.9
20260905061159 56 217 2.6 5.2 0.00 0.03 0.03 91 1014.9
20260905060405 56 229 2.6 4.3 0.00 0.03 0.03 91 1014.9
20260905055903 56 224 2.6 4.3 0.00 0.03 0.03 91 1014.9
20260905055403 56 224 1.7 3.5 0.00 0.03 0.03 91 1014.8
20260905054904 56 215 1.7 3.5 0.00 0.03 0.03 91 1014.8
20260905054404 57 211 2.6 4.3 0.00 0.03 0.03 91 1014.8
20260905053904 57 202 2.6 4.3 0.00 0.03 0.03 91 1014.8
20260905053401 56 223 2.6 4.3 0.00 0.03 0.03 90 1014.8
20260905052906 56 208 2.6 4.3 0.00 0.03 0.03 90 1014.8
20260905052404 57 217 2.6 4.3 0.00 0.03 0.03 90 1014.8
20260905051904 57 204 2.6 4.3 0.00 0.03 0.03 90 1014.8
20260905051401 57 229 1.7 3.5 0.00 0.03 0.03 90 1014.8
20260905051149 57 248 1.7 2.6 0.00 0.03 0.03 89 1014.8
20260905050357 57 235 0.9 2.6 0.00 0.03 0.03 89 1014.8
20260905045857 57 218 1.7 3.5 0.00 0.03 0.03 89 1014.8
20260905045355 57 224 1.7 3.5 0.00 0.03 0.03 88 1014.8
20260905044858 57 217 1.7 2.6 0.00 0.03 0.03 88 1014.8
20260905044339 57 229 2.6 3.5 0.00 0.03 0.03 87 1014.8
20260905043831 58 230 1.7 3.5 0.00 0.03 0.03 87 1014.8
20260905043330 58 208 0.9 2.6 0.00 0.03 0.03 86 1014.8
20260905042831 58 236 0.0 1.7 0.00 0.03 0.03 85 1014.8
20260905042331 58 344 0.9 1.7 0.00 0.03 0.03 84 1014.8
20260905041835 58 346 1.7 2.6 0.00 0.03 0.03 84 1014.8
20260905041329 58 343 2.6 4.3 0.00 0.03 0.03 84 1014.8
20260905040826 58 359 3.5 6.1 0.00 0.03 0.03 84 1014.8
20260905040316 58 14 4.3 7.0 0.00 0.03 0.03 84 1014.8
20260905035852 58 344 2.6 7.0 0.00 0.03 0.03 84 1014.8
20260905034816 58 186 1.7 3.5 0.01 0.03 0.03 84 1014.5
20260905034606 58 207 2.6 5.2 0.02 0.03 0.03 84 1014.5
20260905033807 58 192 2.6 5.2 0.02 0.03 0.03 84 1014.4
20260905033304 58 177 3.5 5.2 0.02 0.03 0.03 84 1014.4
20260905032803 59 241 2.6 5.2 0.03 0.03 0.03 84 1014.4
20260905032306 59 219 2.6 5.2 0.03 0.03 0.03 84 1014.4
20260905031841 59 219 2.6 5.2 0.03 0.03 0.03 83 1014.4
20260905030802 59 207 2.6 5.2 0.03 0.03 0.03 84 1014.4
20260905030302 59 204 2.6 4.3 0.03 0.03 0.03 83 1014.4
20260905025805 59 227 3.5 7.8 0.03 0.03 0.03 83 1014.4
20260905025308 59 230 4.3 8.7 0.02 0.02 0.02 82 1014.3
20260905024801 59 242 4.3 8.7 0.02 0.02 0.02 81 1014.3
20260905024246 60 211 3.5 5.2 0.01 0.01 0.01 81 1014.3
20260905023743 61 250 3.5 6.1 0.01 0.01 0.01 80 1014.3
20260905023235 61 216 3.5 7.0 0.01 0.01 0.01 76 1014.3
20260905022732 61 171 3.5 7.0 0.00 0.00 0.00 75 1014.3
20260905022310 61 164 5.2 9.6 0.00 0.00 0.00 74 1014.1
20260905021232 63 146 7.0 14.8 0.00 0.00 0.00 69 1014.1
20260905020737 65 141 7.0 14.8 0.00 0.00 0.00 62 1013.9
20260905020233 66 141 5.2 13.0 0.00 0.00 0.00 55 1013.9
20260905015727 67 94 5.2 9.6 0.00 0.00 0.00 49 1013.9
20260905015227 67 110 7.0 12.2 0.00 0.00 0.00 50 1013.6
20260905014728 68 53 6.1 12.2 0.00 0.00 0.00 49 1013.6
20260905014226 68 96 7.0 13.9 0.00 0.00 0.00 49 1013.6
20260905013727 68 84 7.0 13.9 0.00 0.00 0.00 48 1013.2
20260905013526 68 44 5.2 12.2 0.00 0.00 0.00 46 1013.2
20260905013024 68 58 4.3 7.0 0.00 0.00 0.00 45 1013.2
20260905012223 68 73 6.1 9.6 0.00 0.00 0.00 46 1012.9
20260905011727 69 97 6.1 9.6 0.00 0.00 0.00 46 1012.9
20260905011225 69 48 5.2 9.6 0.00 0.00 0.00 47 1012.9
20260905010716 68 73 7.0 10.4 0.00 0.00 0.00 47 1012.9
20260905010516 69 53 5.2 10.4 0.00 0.00 0.00 47 1012.9
20260905005711 68 92 5.2 10.4 0.00 0.00 0.00 47 1012.9
20260905005210 68 69 5.2 10.4 0.00 0.00 0.00 48 1012.8
20260905004710 68 348 3.5 7.8 0.00 0.00 0.00 53 1012.8
20260905004208 69 340 2.6 6.1 0.00 0.00 0.00 53 1012.8
20260905003706 69 55 2.6 4.3 0.00 0.00 0.00 47 1012.8
20260905003207 68 301 2.6 4.3 0.00 0.00 0.00 49 1012.8
20260905003014 68 325 1.7 3.5 0.00 0.00 0.00 50 1012.8
20260905002205 68 321 2.6 4.3 0.00 0.00 0.00 51 1012.7
20260905001705 68 327 3.5 4.3 0.00 0.00 0.00 51 1012.7
20260905001209 67 329 3.5 4.3 0.00 0.00 0.00 52 1012.7
20260905001010 67 359 4.3 6.1 0.00 0.00 0.00 53 1012.6
20260905000205 67 14 4.3 6.1 0.00 0.00 0.00 55 1012.6
20260904235707 67 13 3.5 6.1 0.00 0.00 0.00 54 1012.6
20260904235214 68 350 2.6 3.5 0.00 0.00 0.00 54 1012.5